TimeMDT,TemperatureF,Dew PointF,Humidity,Sea Level PressureIn,VisibilityMPH,Wind Direction,Wind SpeedMPH,Gust SpeedMPH,PrecipitationIn,Events,Conditions,WindDirDegrees,DateUTC
12:53 AM,46.9,45.0,93,30.14,10.0,NE,4.6,-,N/A,,Clear,50,2013-06-13 06:53:00
1:53 AM,48.0,45.0,89,30.12,10.0,ENE,8.1,-,N/A,,Clear,70,2013-06-13 07:53:00
2:53 AM,46.9,45.0,93,30.11,10.0,East,6.9,-,N/A,,Clear,90,2013-06-13 08:53:00
3:19 AM,46.4,44.6,93,30.21,10.0,ESE,3.5,-,N/A,,Partly Cloudy,120,2013-06-13 09:19:00
3:39 AM,48.2,46.4,93,30.21,10.0,SE,6.9,-,N/A,,Mostly Cloudy,130,2013-06-13 09:39:00
3:53 AM,48.0,46.0,93,30.10,10.0,SE,8.1,-,N/A,,Mostly Cloudy,140,2013-06-13 09:53:00
4:26 AM,48.2,44.6,87,30.21,10.0,SE,4.6,-,N/A,,Scattered Clouds,140,2013-06-13 10:26:00
4:53 AM,46.9,42.1,83,30.10,10.0,SE,5.8,-,N/A,,Clear,140,2013-06-13 10:53:00
5:53 AM,46.9,42.1,83,30.10,10.0,SSE,5.8,-,N/A,,Clear,160,2013-06-13 11:53:00
6:53 AM,48.9,42.1,77,30.10,10.0,Variable,5.8,-,N/A,,Clear,0,2013-06-13 12:53:00
7:53 AM,51.1,39.9,66,30.08,10.0,SSE,12.7,20.7,N/A,,Clear,160,2013-06-13 13:53:00
8:53 AM,54.0,43.0,66,30.07,10.0,South,12.7,18.4,N/A,,Clear,170,2013-06-13 14:53:00
9:53 AM,54.0,44.1,69,30.05,10.0,SSW,9.2,17.3,N/A,,Overcast,200,2013-06-13 15:53:00
10:10 AM,53.6,44.6,72,30.16,10.0,South,8.1,-,N/A,,Overcast,190,2013-06-13 16:10:00
10:53 AM,57.0,46.0,67,30.04,10.0,South,10.4,20.7,N/A,,Mostly Cloudy,170,2013-06-13 16:53:00
11:02 AM,57.2,46.4,67,30.14,10.0,SSE,10.4,19.6,N/A,,Scattered Clouds,160,2013-06-13 17:02:00
11:33 AM,59.0,46.4,63,30.13,10.0,South,15.0,24.2,N/A,,Mostly Cloudy,170,2013-06-13 17:33:00
11:53 AM,59.0,46.9,64,30.01,10.0,South,11.5,20.7,N/A,,Scattered Clouds,170,2013-06-13 17:53:00
12:53 PM,60.1,48.0,64,29.98,10.0,Variable,5.8,-,N/A,,Clear,0,2013-06-13 18:53:00
1:53 PM,62.1,48.9,62,29.96,10.0,SSE,9.2,-,N/A,,Clear,160,2013-06-13 19:53:00
2:53 PM,63.0,50.0,63,29.94,10.0,South,8.1,-,N/A,,Clear,190,2013-06-13 20:53:00
3:53 PM,64.9,50.0,58,29.90,10.0,Variable,6.9,-,N/A,,Clear,0,2013-06-13 21:53:00
4:53 PM,64.9,51.1,61,29.88,10.0,SSE,6.9,-,N/A,,Clear,160,2013-06-13 22:53:00
5:53 PM,62.1,50.0,65,29.92,10.0,SSW,8.1,-,N/A,,Scattered Clouds,200,2013-06-13 23:53:00
6:53 PM,62.1,51.1,67,29.99,10.0,SW,10.4,16.1,N/A,,Overcast,220,2013-06-14 00:53:00
7:53 PM,61.0,52.0,72,29.88,10.0,NW,3.5,-,0.01,,Clear,310,2013-06-14 01:53:00
8:53 PM,57.0,51.1,81,29.87,10.0,Calm,Calm,-,N/A,,Clear,0,2013-06-14 02:53:00
9:53 PM,61.0,52.0,72,29.87,10.0,ESE,8.1,-,N/A,,Clear,120,2013-06-14 03:53:00
10:53 PM,62.1,52.0,70,29.86,10.0,East,5.8,-,N/A,,Clear,100,2013-06-14 04:53:00
11:53 PM,60.1,52.0,75,29.82,10.0,SE,3.5,-,N/A,,Partly Cloudy,130,2013-06-14 05:53:00